Weather History for KTBR - November, 2013

Change the Weather History Date:

Sunday, November 17, 2013

  Actual Average (KSAV) Record (KSAV)
Temperature  
Mean Temperature 65 °F 59 °F  
Max Temperature 75 °F 70 °F 85 °F (1964)
Min Temperature 55 °F 47 °F 28 °F (1970)
Degree Days  
Heating Degree Days 0 7  
Month to date heating degree days 94  
Since 1 July heating degree days 151  
Cooling Degree Days 0 1  
Month to date cooling degree days 27  
Year to date cooling degree days 2439  
Growing Degree Days 15 (Base 50)    
Moisture  
Dew Point 64 °F    
Average Humidity 92    
Maximum Humidity 100    
Minimum Humidity 62    
Precipitation  
Precipitation 0.00 in 0.08 in 1.28 in (1986)
Month to date precipitation 1.33  
Year to date precipitation 43.97  
Sea Level Pressure  
Sea Level Pressure 30.07 in    
Wind  
Wind Speed 2 mph (South)    
Max Wind Speed 7 mph    
Max Gust Speed -    
Visibility 10 miles    
Events Rain    
T = Trace of Precipitation, MM = Missing Value Source: NWS Daily Summary

Daily Weather History Graph

Daily Weather History Graph

Search for Another Location

Airport or City:

Trip Planner

Search our weather history database for the weather conditions in past years. The results will help you decide how hot, cold, wet, or windy it might be!

Date:

Astronomy

Nov. 17, 2013 Rise Set
Actual Time 6:58 AM EST 5:25 PM EST
Civil Twilight 6:32 AM EST 5:51 PM EST
Nautical Twilight 6:02 AM EST 6:21 PM EST
Astronomical Twilight 5:33 AM EST 6:50 PM EST
Moon 5:41 PM EST (11/17) 6:52 AM EST (11/17)
Length of Visible Light 11h 18m
Length of Day
10h 26m
Full, 100% of the Moon is Illuminated
Nov 17
Full
Nov 25
Last Quarter
Dec 2
New
Dec 9
First Quarter
Dec 17
Full

Hourly Weather History & Observations

Time (EST) Temp. Dew Point Humidity Pressure Visibility Wind Dir Wind Speed Gust Speed Precip Events Conditions
12:15 AM 59.2 °F 59.2 °F 100% 30.16 in 7.0 mi East 3.5 mph - N/A   Scattered Clouds
12:35 AM 57.9 °F 57.6 °F 99% 30.15 in 10.0 mi Calm Calm - N/A   Scattered Clouds
12:55 AM 60.1 °F 59.4 °F 97% 30.15 in 10.0 mi Calm Calm - N/A   Mostly Cloudy
1:15 AM 58.3 °F 58.3 °F 100% 30.15 in 10.0 mi Calm Calm - N/A   Overcast
1:35 AM 60.1 °F 59.5 °F 98% 30.14 in 10.0 mi Calm Calm - N/A   Overcast
1:55 AM 58.6 °F 57.9 °F 97% 30.14 in 10.0 mi West 3.5 mph - N/A   Mostly Cloudy
2:15 AM 57.2 °F 57.2 °F 100% 30.13 in 10.0 mi Calm Calm - N/A   Scattered Clouds
2:35 AM 56.5 °F 56.5 °F 100% 30.13 in 10.0 mi Calm Calm - N/A   Clear
2:55 AM 55.4 °F 55.4 °F 100% 30.13 in 7.0 mi Calm Calm - N/A   Mostly Cloudy
3:15 AM 56.3 °F 56.3 °F 100% 30.13 in 10.0 mi Calm Calm - N/A   Overcast
3:35 AM 57.2 °F 57.2 °F 100% 30.13 in 10.0 mi Calm Calm - N/A   Overcast
3:55 AM 57.6 °F 57.6 °F 100% 30.12 in 10.0 mi Calm Calm - N/A   Overcast
4:15 AM 58.3 °F 58.3 °F 100% 30.11 in 10.0 mi Calm Calm - N/A   Overcast
4:35 AM 59.0 °F 59.0 °F 100% 30.11 in 10.0 mi Calm Calm - N/A   Overcast
4:55 AM 59.2 °F 59.2 °F 100% 30.11 in 10.0 mi Calm Calm - N/A   Overcast
5:15 AM 59.9 °F 59.9 °F 100% 30.11 in 10.0 mi Calm Calm - N/A   Overcast
5:35 AM 59.7 °F 59.7 °F 100% 30.11 in 10.0 mi Calm Calm - N/A   Overcast
5:55 AM 59.9 °F 59.9 °F 100% 30.11 in 10.0 mi Calm Calm - N/A Rain Light Rain
6:15 AM 59.5 °F 59.5 °F 100% 30.10 in 10.0 mi Calm Calm - N/A   Overcast
6:35 AM 59.2 °F 59.2 °F 100% 30.10 in 10.0 mi Calm Calm - N/A   Scattered Clouds
6:55 AM 59.4 °F 59.4 °F 100% 30.10 in 10.0 mi Calm Calm - N/A   Mostly Cloudy
7:15 AM 59.9 °F 59.9 °F 100% 30.10 in 10.0 mi Calm Calm - N/A   Overcast
7:35 AM 60.4 °F 60.4 °F 100% 30.10 in 10.0 mi Calm Calm - N/A   Overcast
7:55 AM 61.7 °F 61.7 °F 100% 30.10 in 10.0 mi Calm Calm - N/A   Overcast
8:15 AM 63.0 °F 62.6 °F 99% 30.11 in 10.0 mi Calm Calm - N/A   Overcast
8:35 AM 64.4 °F 63.1 °F 96% 30.12 in 10.0 mi Calm Calm - N/A   Overcast
8:55 AM 64.4 °F 63.3 °F 96% 30.12 in 10.0 mi Calm Calm - N/A   Overcast
9:15 AM 65.7 °F 63.7 °F 93% 30.12 in 10.0 mi Calm Calm - N/A   Overcast
9:35 AM 66.4 °F 64.0 °F 92% 30.13 in 10.0 mi ESE 3.5 mph - N/A   Overcast
9:55 AM 67.1 °F 64.4 °F 91% 30.13 in 10.0 mi Calm Calm - N/A   Overcast
10:15 AM 67.8 °F 64.8 °F 90% 30.13 in 10.0 mi ESE 3.5 mph - N/A   Overcast
10:35 AM 68.4 °F 65.3 °F 90% 30.13 in 10.0 mi South 3.5 mph - N/A   Overcast
10:55 AM 69.8 °F 65.5 °F 86% 30.11 in 10.0 mi South 4.6 mph - N/A   Overcast
11:15 AM 71.6 °F 65.8 °F 82% 30.11 in 10.0 mi SSE 4.6 mph - N/A   Overcast
11:35 AM 71.6 °F 66.2 °F 83% 30.11 in 10.0 mi SSW 4.6 mph - N/A   Overcast
11:55 AM 72.5 °F 66.7 °F 82% 30.10 in 7.0 mi SSW 5.8 mph - N/A   Overcast
12:15 PM 73.0 °F 67.5 °F 83% 30.08 in 7.0 mi SSE 5.8 mph - N/A   Mostly Cloudy
12:35 PM 73.9 °F 62.1 °F 66% 30.07 in 10.0 mi South 6.9 mph - N/A   Scattered Clouds
12:55 PM 73.8 °F 62.2 °F 67% 30.06 in 10.0 mi SSW 3.5 mph - N/A   Mostly Cloudy
1:15 PM 75.0 °F 61.7 °F 63% 30.05 in 10.0 mi South 5.8 mph - N/A   Overcast
1:35 PM 75.4 °F 61.7 °F 62% 30.04 in 10.0 mi South 3.5 mph - N/A   Overcast
1:55 PM 74.5 °F 61.9 °F 65% 30.04 in 10.0 mi South 6.9 mph - N/A   Overcast
2:15 PM 73.4 °F 62.1 °F 68% 30.03 in 10.0 mi SSW 6.9 mph - N/A   Overcast
2:35 PM 73.6 °F 62.2 °F 68% 30.02 in 10.0 mi Calm Calm - N/A   Overcast
2:55 PM 73.6 °F 63.0 °F 69% 30.01 in 10.0 mi Calm Calm - N/A   Overcast
3:15 PM 73.9 °F 63.0 °F 68% 30.02 in 10.0 mi SSW 4.6 mph - N/A   Overcast
3:35 PM 73.9 °F 62.1 °F 66% 30.03 in 10.0 mi SW 3.5 mph - N/A   Overcast
3:55 PM 73.9 °F 62.6 °F 68% 30.03 in 10.0 mi SW 3.5 mph - N/A   Overcast
4:15 PM 72.7 °F 63.0 °F 71% 30.02 in 10.0 mi SSW 4.6 mph - N/A   Light Drizzle
4:35 PM 72.5 °F 63.1 °F 72% 30.02 in 10.0 mi South 3.5 mph - N/A   Overcast
4:55 PM 72.0 °F 63.5 °F 75% 30.00 in 10.0 mi SSE 4.6 mph - N/A Rain Rain
5:15 PM 70.2 °F 68.5 °F 95% 30.00 in 10.0 mi South 3.5 mph - N/A Rain Light Rain
5:35 PM 69.4 °F 68.9 °F 98% 30.00 in 10.0 mi Calm Calm - N/A Rain Light Rain
5:55 PM 69.4 °F 68.9 °F 98% 30.00 in 10.0 mi SE 3.5 mph - N/A   Scattered Clouds
6:15 PM 68.9 °F 68.7 °F 99% 30.00 in 10.0 mi Calm Calm - N/A   Scattered Clouds
6:35 PM 68.4 °F 68.4 °F 100% 30.00 in 10.0 mi Calm Calm - N/A   Overcast
6:55 PM 68.7 °F 68.7 °F 100% 30.00 in 10.0 mi SSE 3.5 mph - N/A   Overcast
7:15 PM 69.1 °F 69.1 °F 100% 30.00 in 10.0 mi SSE 4.6 mph - N/A   Overcast
7:35 PM 69.1 °F 69.1 °F 100% 30.00 in 10.0 mi SSE 3.5 mph - N/A   Scattered Clouds
7:55 PM 68.9 °F 68.9 °F 100% 30.00 in 10.0 mi South 5.8 mph - N/A   Clear
8:15 PM 69.1 °F 69.1 °F 100% 30.00 in 10.0 mi SSE 4.6 mph - N/A   Clear
8:35 PM 69.3 °F 69.3 °F 100% 30.01 in 10.0 mi South 4.6 mph - N/A   Clear
8:55 PM 68.9 °F 68.9 °F 100% 30.01 in 10.0 mi South 5.8 mph - N/A   Scattered Clouds
9:15 PM 68.5 °F 68.5 °F 100% 30.01 in 10.0 mi South 3.5 mph - N/A   Clear
9:35 PM 68.5 °F 68.5 °F 100% 30.01 in 10.0 mi South 4.6 mph - N/A   Clear
9:55 PM 68.9 °F 68.9 °F 100% 30.00 in 10.0 mi South 6.9 mph - N/A   Clear
10:15 PM 68.9 °F 68.9 °F 100% 30.00 in 10.0 mi South 5.8 mph - N/A   Scattered Clouds
10:35 PM 68.9 °F 68.9 °F 100% 30.00 in 10.0 mi South 4.6 mph - N/A   Mostly Cloudy
10:55 PM 69.1 °F 69.1 °F 100% 30.01 in 10.0 mi South 4.6 mph - N/A   Overcast
11:15 PM 69.3 °F 69.3 °F 100% 30.01 in 10.0 mi South 3.5 mph - N/A   Overcast
11:35 PM 69.8 °F 69.8 °F 100% 30.01 in 10.0 mi South 6.9 mph - N/A   Overcast
11:55 PM 70.0 °F 70.0 °F 100% 30.00 in 10.0 mi South 6.9 mph - N/A   Overcast